Time,TemperatureF,DewpointF,PressureIn,WindDirection,WindDirectionDegrees,WindSpeedMPH,WindSpeedGustMPH,Humidity,HourlyPrecipIn,Conditions,Clouds,dailyrainin,SolarRadiationWatts/m^2,SoftwareType,DateUTC
2013-05-22 00:13:00,53.0,51.0,29.88,West,271,0.0,7.0,93,0.25,,,0.04,0,weatherlink.com 1.10,2013-05-22 04:13:00,
2013-05-22 00:28:00,53.0,51.0,29.90,WNW,298,2.0,13.0,94,0.24,,,0.10,0,weatherlink.com 1.10,2013-05-22 04:28:00,
2013-05-22 00:43:00,52.9,51.0,29.87,WNW,299,0.0,5.0,94,0.22,,,0.15,0,weatherlink.com 1.10,2013-05-22 04:43:00,
2013-05-22 00:58:00,53.1,52.0,29.93,NW,306,3.0,5.0,94,0.20,,,0.19,0,weatherlink.com 1.10,2013-05-22 04:58:00,
2013-05-22 01:13:00,53.3,52.0,29.92,SW,219,4.0,11.0,94,0.19,,,0.23,0,weatherlink.com 1.10,2013-05-22 05:13:00,
2013-05-22 01:28:00,53.3,52.0,29.91,South,173,3.0,12.0,95,0.18,,,0.28,0,weatherlink.com 1.10,2013-05-22 05:28:00,
2013-05-22 01:43:00,53.2,52.0,29.88,SE,128,0.0,6.0,95,0.17,,,0.32,0,weatherlink.com 1.10,2013-05-22 05:43:00,
2013-05-22 01:58:00,53.1,52.0,29.89,South,190,4.0,4.0,95,0.18,,,0.37,0,weatherlink.com 1.10,2013-05-22 05:58:00,
2013-05-22 02:13:00,53.3,52.0,29.90,SW,230,0.0,6.0,95,0.19,,,0.42,0,weatherlink.com 1.10,2013-05-22 06:13:00,
2013-05-22 02:28:00,53.4,52.0,29.92,SW,224,0.0,3.0,95,0.18,,,0.46,0,weatherlink.com 1.10,2013-05-22 06:28:00,
2013-05-22 02:43:00,53.3,52.0,29.92,WSW,241,0.0,6.0,95,0.18,,,0.50,0,weatherlink.com 1.10,2013-05-22 06:43:00,
2013-05-22 03:00:00,53.3,52.0,29.90,South,189,0.0,1.0,95,0.17,,,0.55,0,weatherlink.com 1.10,2013-05-22 07:00:00,
2013-05-22 03:13:00,53.3,52.0,29.89,South,188,0.0,0.0,95,0.18,,,0.60,0,weatherlink.com 1.10,2013-05-22 07:13:00,
2013-05-22 03:28:00,53.3,52.0,29.88,South,188,0.0,4.0,95,0.18,,,0.64,0,weatherlink.com 1.10,2013-05-22 07:28:00,
2013-05-22 03:43:00,53.3,52.0,29.87,WSW,239,3.0,6.0,95,0.18,,,0.68,0,weatherlink.com 1.10,2013-05-22 07:43:00,
2013-05-22 03:58:00,53.3,52.0,29.86,SW,227,0.0,6.0,96,0.17,,,0.72,0,weatherlink.com 1.10,2013-05-22 07:58:00,
2013-05-22 04:13:00,53.3,52.0,29.85,SW,225,5.0,9.0,96,0.16,,,0.76,0,weatherlink.com 1.10,2013-05-22 08:13:00,
2013-05-22 04:28:00,53.3,52.0,29.85,SW,236,2.0,7.0,96,0.15,,,0.79,0,weatherlink.com 1.10,2013-05-22 08:28:00,
2013-05-22 04:43:00,53.3,52.0,29.84,SW,234,0.0,0.0,96,0.14,,,0.82,0,weatherlink.com 1.10,2013-05-22 08:43:00,
2013-05-22 04:58:00,53.4,52.0,29.85,SW,234,0.0,0.0,96,0.13,,,0.85,0,weatherlink.com 1.10,2013-05-22 08:58:00,
2013-05-22 05:13:00,53.5,52.0,29.86,SSW,209,2.0,6.0,96,0.12,,,0.88,0,weatherlink.com 1.10,2013-05-22 09:13:00,
2013-05-22 05:28:00,53.6,53.0,29.87,South,175,1.0,3.0,96,0.11,,,0.90,0,weatherlink.com 1.10,2013-05-22 09:28:00,
2013-05-22 05:43:00,53.8,53.0,29.87,South,175,0.0,0.0,96,0.10,,,0.92,5,weatherlink.com 1.10,2013-05-22 09:43:00,
2013-05-22 05:58:00,53.9,53.0,29.87,South,175,0.0,3.0,96,0.10,,,0.95,11,weatherlink.com 1.10,2013-05-22 09:58:00,
2013-05-22 06:13:00,54.0,53.0,29.84,South,175,0.0,0.0,96,0.09,,,0.97,19,weatherlink.com 1.10,2013-05-22 10:13:00,
2013-05-22 06:28:00,54.4,53.0,29.82,WSW,241,0.0,11.0,96,0.08,,,0.98,35,weatherlink.com 1.10,2013-05-22 10:28:00,
2013-05-22 06:43:00,54.8,54.0,29.86,SW,229,0.0,8.0,96,0.07,,,1.00,44,weatherlink.com 1.10,2013-05-22 10:43:00,
2013-05-22 06:58:00,55.0,54.0,29.86,SW,229,0.0,0.0,97,0.07,,,1.02,40,weatherlink.com 1.10,2013-05-22 10:58:00,
2013-05-22 07:13:00,55.3,54.0,29.86,SW,229,0.0,0.0,96,0.06,,,1.03,111,weatherlink.com 1.10,2013-05-22 11:13:00,
2013-05-22 07:28:00,55.8,55.0,29.87,SW,229,0.0,0.0,97,0.05,,,1.04,179,weatherlink.com 1.10,2013-05-22 11:28:00,
2013-05-22 07:43:00,56.6,56.0,29.87,SW,215,2.0,5.0,97,0.05,,,1.05,160,weatherlink.com 1.10,2013-05-22 11:43:00,
2013-05-22 07:58:00,56.8,56.0,29.86,SW,230,0.0,9.0,96,0.04,,,1.06,155,weatherlink.com 1.10,2013-05-22 11:58:00,
2013-05-22 08:13:00,57.3,57.0,29.87,SSW,210,5.0,5.0,97,0.04,,,1.07,236,weatherlink.com 1.10,2013-05-22 12:13:00,
2013-05-22 08:28:00,57.7,57.0,29.87,SW,226,3.0,7.0,97,0.03,,,1.07,134,weatherlink.com 1.10,2013-05-22 12:28:00,
2013-05-22 08:43:00,58.1,57.0,29.87,SSW,205,2.0,7.0,96,0.03,,,1.08,236,weatherlink.com 1.10,2013-05-22 12:43:00,
2013-05-22 08:58:00,58.5,57.0,29.86,SW,223,0.0,6.0,96,0.02,,,1.08,264,weatherlink.com 1.10,2013-05-22 12:58:00,
2013-05-22 09:13:00,58.9,58.0,29.86,SSW,197,0.0,4.0,96,0.01,,,1.08,257,weatherlink.com 1.10,2013-05-22 13:13:00,
2013-05-22 09:28:00,59.4,58.0,29.87,SSW,205,8.0,8.0,96,0.00,,,1.08,304,weatherlink.com 1.10,2013-05-22 13:28:00,
2013-05-22 09:44:00,60.3,59.0,29.86,WSW,241,0.0,9.0,96,0.00,,,1.08,329,weatherlink.com 1.10,2013-05-22 13:44:00,
2013-05-22 09:59:00,60.9,60.0,29.86,South,184,0.0,6.0,95,0.00,,,1.08,360,weatherlink.com 1.10,2013-05-22 13:59:00,
2013-05-22 10:16:00,61.7,60.0,29.86,SSW,199,0.0,5.0,94,0.00,,,1.08,418,weatherlink.com 1.10,2013-05-22 14:16:00,
2013-05-22 10:29:00,62.4,61.0,29.86,South,176,0.0,6.0,94,0.00,,,1.08,355,weatherlink.com 1.10,2013-05-22 14:29:00,
2013-05-22 10:44:00,63.2,61.0,29.86,SSW,197,0.0,7.0,93,0.00,,,1.08,489,weatherlink.com 1.10,2013-05-22 14:44:00,
2013-05-22 10:59:00,63.9,62.0,29.86,SW,226,2.0,6.0,92,0.00,,,1.08,489,weatherlink.com 1.10,2013-05-22 14:59:00,
2013-05-22 11:14:00,64.9,62.0,29.86,SSW,192,0.0,8.0,91,0.00,,,1.08,371,weatherlink.com 1.10,2013-05-22 15:14:00,
2013-05-22 11:29:00,65.8,63.0,29.86,SW,229,4.0,7.0,90,0.00,,,1.08,563,weatherlink.com 1.10,2013-05-22 15:29:00,
2013-05-22 11:44:00,67.1,64.0,29.86,SW,230,5.0,7.0,89,0.00,,,1.08,554,weatherlink.com 1.10,2013-05-22 15:44:00,
2013-05-22 11:59:00,68.7,65.0,29.85,SW,216,6.0,7.0,87,0.00,,,1.08,780,weatherlink.com 1.10,2013-05-22 15:59:00,
2013-05-22 12:14:00,68.8,64.0,29.85,SSW,194,0.0,7.0,84,0.00,,,1.08,237,weatherlink.com 1.10,2013-05-22 16:14:00,
2013-05-22 12:29:00,68.8,65.0,29.86,SSW,207,0.0,7.0,87,0.00,,,1.08,367,weatherlink.com 1.10,2013-05-22 16:29:00,
2013-05-22 12:44:00,68.7,64.0,29.85,SW,229,2.0,7.0,86,0.00,,,1.08,188,weatherlink.com 1.10,2013-05-22 16:44:00,
2013-05-22 12:59:00,68.0,64.0,29.85,SW,221,4.0,6.0,86,0.00,,,1.08,149,weatherlink.com 1.10,2013-05-22 16:59:00,
2013-05-22 13:14:00,67.4,64.0,29.85,SW,234,7.0,9.0,87,0.00,,,1.08,229,weatherlink.com 1.10,2013-05-22 17:14:00,
2013-05-22 13:29:00,67.7,64.0,29.84,SSW,209,7.0,10.0,87,0.00,,,1.08,448,weatherlink.com 1.10,2013-05-22 17:29:00,
2013-05-22 13:44:00,68.4,64.0,29.84,SSW,211,5.0,11.0,87,0.00,,,1.08,353,weatherlink.com 1.10,2013-05-22 17:44:00,
2013-05-22 13:59:00,68.9,64.0,29.83,SSW,205,0.0,7.0,85,0.00,,,1.08,378,weatherlink.com 1.10,2013-05-22 17:59:00,
2013-05-22 14:14:00,69.2,65.0,29.83,SSW,201,0.0,9.0,85,0.00,,,1.08,360,weatherlink.com 1.10,2013-05-22 18:14:00,
2013-05-22 14:29:00,69.3,65.0,29.82,SSW,211,0.0,7.0,85,0.00,,,1.08,255,weatherlink.com 1.10,2013-05-22 18:29:00,
2013-05-22 14:44:00,69.6,65.0,29.82,SW,215,4.0,5.0,86,0.00,,,1.08,160,weatherlink.com 1.10,2013-05-22 18:44:00,
2013-05-22 14:59:00,69.8,65.0,29.81,WSW,238,4.0,6.0,85,0.00,,,1.08,207,weatherlink.com 1.10,2013-05-22 18:59:00,
2013-05-22 15:14:00,70.3,66.0,29.82,West,279,0.0,6.0,87,0.00,,,1.08,206,weatherlink.com 1.10,2013-05-22 19:14:00,
2013-05-22 15:29:00,70.7,66.0,29.83,West,273,0.0,4.0,86,0.00,,,1.08,146,weatherlink.com 1.10,2013-05-22 19:29:00,
2013-05-22 15:44:00,71.0,67.0,29.81,SW,222,0.0,5.0,86,0.00,,,1.08,98,weatherlink.com 1.10,2013-05-22 19:44:00,
2013-05-22 15:59:00,70.9,67.0,29.81,SW,221,0.0,2.0,86,0.00,,,1.08,47,weatherlink.com 1.10,2013-05-22 19:59:00,
2013-05-22 16:14:00,70.7,67.0,29.80,SW,221,0.0,0.0,88,0.00,,,1.08,37,weatherlink.com 1.10,2013-05-22 20:14:00,
2013-05-22 16:29:00,70.0,67.0,29.81,SW,225,3.0,5.0,89,0.00,,,1.08,16,weatherlink.com 1.10,2013-05-22 20:29:00,
2013-05-22 16:44:00,69.3,66.0,29.81,South,188,1.0,7.0,89,0.01,,,1.09,25,weatherlink.com 1.10,2013-05-22 20:44:00,
2013-05-22 16:59:00,68.6,66.0,29.81,SSW,211,0.0,7.0,91,0.03,,,1.11,25,weatherlink.com 1.10,2013-05-22 20:59:00,
2013-05-22 17:14:00,68.0,66.0,29.81,WSW,241,3.0,5.0,92,0.05,,,1.13,19,weatherlink.com 1.10,2013-05-22 21:14:00,
2013-05-22 17:31:00,67.7,66.0,29.81,WSW,239,0.0,0.0,93,0.08,,,1.16,44,weatherlink.com 1.10,2013-05-22 21:31:00,
2013-05-22 17:44:00,67.6,66.0,29.81,WSW,239,0.0,1.0,94,0.08,,,1.17,81,weatherlink.com 1.10,2013-05-22 21:44:00,
2013-05-22 17:59:00,67.9,66.0,29.79,WSW,238,0.0,3.0,94,0.06,,,1.17,188,weatherlink.com 1.10,2013-05-22 21:59:00,
2013-05-22 18:14:00,68.5,67.0,29.80,WSW,239,0.0,0.0,95,0.04,,,1.17,243,weatherlink.com 1.10,2013-05-22 22:14:00,
2013-05-22 18:29:00,69.0,68.0,29.79,WSW,238,0.0,0.0,95,0.01,,,1.17,158,weatherlink.com 1.10,2013-05-22 22:29:00,
2013-05-22 18:44:00,69.2,68.0,29.79,WSW,238,0.0,0.0,94,0.00,,,1.17,135,weatherlink.com 1.10,2013-05-22 22:44:00,
2013-05-22 18:59:00,69.5,68.0,29.80,WSW,239,0.0,0.0,94,0.00,,,1.17,74,weatherlink.com 1.10,2013-05-22 22:59:00,
2013-05-22 19:14:00,69.6,68.0,29.81,WSW,239,0.0,3.0,94,0.00,,,1.17,63,weatherlink.com 1.10,2013-05-22 23:14:00,
2013-05-22 19:29:00,69.4,67.0,29.82,WSW,239,0.0,0.0,93,0.00,,,1.17,33,weatherlink.com 1.10,2013-05-22 23:29:00,
2013-05-22 19:44:00,69.3,68.0,29.82,WSW,239,0.0,0.0,94,0.00,,,1.17,7,weatherlink.com 1.10,2013-05-22 23:44:00,
2013-05-22 19:59:00,69.0,67.0,29.82,WSW,239,0.0,0.0,94,0.00,,,1.17,0,weatherlink.com 1.10,2013-05-22 23:59:00,
2013-05-22 20:14:00,68.8,67.0,29.82,WSW,238,0.0,0.0,94,0.00,,,1.17,0,weatherlink.com 1.10,2013-05-23 00:14:00,
2013-05-22 20:29:00,68.6,67.0,29.82,West,268,0.0,3.0,94,0.00,,,1.17,0,weatherlink.com 1.10,2013-05-23 00:29:00,
2013-05-22 20:44:00,68.4,67.0,29.82,West,269,0.0,0.0,95,0.00,,,1.17,0,weatherlink.com 1.10,2013-05-23 00:44:00,
2013-05-22 20:59:00,68.2,67.0,29.83,West,269,0.0,1.0,95,0.00,,,1.17,0,weatherlink.com 1.10,2013-05-23 00:59:00,
2013-05-22 21:14:00,67.8,66.0,29.83,SW,236,0.0,5.0,95,0.00,,,1.17,0,weatherlink.com 1.10,2013-05-23 01:14:00,
2013-05-22 21:29:00,67.5,66.0,29.84,SSE,160,0.0,1.0,95,0.00,,,1.17,0,weatherlink.com 1.10,2013-05-23 01:29:00,
2013-05-22 21:44:00,67.1,65.0,29.84,SW,225,0.0,8.0,94,0.00,,,1.17,0,weatherlink.com 1.10,2013-05-23 01:44:00,
2013-05-22 21:59:00,66.7,65.0,29.84,SSE,152,0.0,5.0,93,0.00,,,1.17,0,weatherlink.com 1.10,2013-05-23 01:59:00,
2013-05-22 22:14:00,66.3,64.0,29.85,SSW,203,0.0,4.0,92,0.00,,,1.17,0,weatherlink.com 1.10,2013-05-23 02:14:00,
2013-05-22 22:29:00,65.8,64.0,29.85,SSW,204,0.0,7.0,92,0.00,,,1.17,0,weatherlink.com 1.10,2013-05-23 02:29:00,
2013-05-22 22:44:00,65.4,63.0,29.84,SSW,202,0.0,6.0,92,0.00,,,1.17,0,weatherlink.com 1.10,2013-05-23 02:44:00,
2013-05-22 22:59:00,64.9,63.0,29.84,South,173,0.0,5.0,92,0.00,,,1.17,0,weatherlink.com 1.10,2013-05-23 02:59:00,
2013-05-22 23:15:00,64.5,62.0,29.83,South,175,0.0,3.0,92,0.00,,,1.17,0,weatherlink.com 1.10,2013-05-23 03:15:00,
2013-05-22 23:30:00,64.1,62.0,29.83,SSW,207,4.0,6.0,92,0.00,,,1.17,0,weatherlink.com 1.10,2013-05-23 03:30:00,
2013-05-22 23:46:00,63.5,61.0,29.83,South,178,0.0,7.0,92,0.00,,,1.17,0,weatherlink.com 1.10,2013-05-23 03:46:00,